Find KA-Sat

NORAD ID: 37258 Int'l Des: 2010-069 Owner: EUTSA Country: F operational
HEOCIRCULARGSOGEO

現在のビュー

3D地球を読み込み中...

KA-Satについて

説明を読み込み中...

次回通過

Passes for default location (London). Set your location on the main map for personalized predictions.

高度履歴

Loading altitude history...

軌道要素

1 37258U 10069A 26149.93451309 .00000073 00000-0 00000+0 0 9996
2 37258 0.0636 12.5912 0003984 112.8689 107.4090 1.00273014 43827
Epoch: May 29, 2026 • Age: 17 hours

現在のステータス

高度 35768.9 km
速度 3.08 km/s
衛星直下点 0.06°N, 8.99°E
打ち上げ日 Dec 26, 2010
運用期間 15.4 years
タイプ other

技術仕様

分類 Payload
質量 5800.00 kg
乾燥質量 3000.00 kg
総質量 5800.00 kg
長さ 4.50 m
直径 2.40 m
スパン 39.40 m
形状 Box + 2 Pan + Dish
製造者 EADSB
バスタイプ Eurostar 3000
フェーズステータス Renamed
所有者/国 EUTSA/F

Most Searched